Simultaneous Nadir Overpasses (SNOs) Predictions

Prediction of SNOs between AQUA and NPP Satellite Orbit:

Table of predicted SNOs for the next 14.0 days since TLE Epoch: 10/8/2022
Index Date (AQUA) Time (AQUA) Lat,Lon (AQUA) SZA (AQUA ) Date (NPP) Time (NPP) Lat,Lon (NPP) SZA (NPP ) Distance(km) Time Diff (sec)
1 10/09/2022 19:34:55 78.72, 137.89 99.32 10/09/2022 19:34:32 78.71, 137.78 99.36 2.45 23
2 10/09/2022 20:24:12 -79.10, -52.22 81.17 10/09/2022 20:25:07 -79.10, -52.32 81.20 2.29 55
3 10/12/2022 11:01:06 -78.81, 86.85 79.86 10/12/2022 11:00:40 -78.82, 86.90 79.85 1.14 26
4 10/12/2022 11:50:22 79.18,-103.27 99.67 10/12/2022 11:51:14 79.18,-103.23 99.63 0.88 52
5 10/15/2022 02:27:18 78.72, 34.81 101.20 10/15/2022 02:26:51 78.71, 34.70 101.24 2.39 27
6 10/15/2022 03:16:35 -79.10,-155.29 79.29 10/15/2022 03:17:26 -79.10,-155.38 79.32 1.96 51
7 10/17/2022 17:53:26 -78.84, -16.03 78.04 10/17/2022 17:52:58 -78.84, -15.99 78.02 0.79 28
8 10/17/2022 18:42:42 79.21, 153.84 101.50 10/17/2022 18:43:32 79.21, 153.86 101.45 0.62 50
9 10/20/2022 09:19:33 78.90, -67.20 102.80 10/20/2022 09:19:05 78.91, -67.08 102.80 2.92 28



Historial Predications of SNOs between AQUA and NPP
